Location: Beadle
(51.4667°N, 109.0000°W)
Time: 05:23:37
(UTC+00:00)

Altair - Pass Details

Date: 05 June 2022
Orbit: 1501 x 1682 km, 47.2° (Epoch: 30 June)

Event Time Altitude Azimuth Distance (km) Brightness Sun altitude
Rises 22:34:24 0° 250° (WSW) 4,795 10.9 42.1°
Reaches altitude 10° 22:37:29 10° 248° (WSW) 3,834 10.7 41.7°
Maximum altitude 22:47:11 67° 169° (S) 1,768 8.5 40.2°
Drops below altitude 10° 22:57:11 10° 90° (E) 3,942 9.3 38.7°
Sets 23:00:23 0° 88° (E) 4,936 9.7 38.2°
